SCP
1 0 0 0 0 0 0 0 0 0 0 0 0 0 0 0 0 0 0 0 0 0 0 0 0 0 0 0 0 0 0 0 0 0 0 0 0 0 0 0 0 0 0 0 0 0 0 0 0
0 0 0 0 0 0 0 0 0 0 0 0 0 0 0 0 0 0 0 0 0 0 0 0 0 0 0 0 0 0 0 0 0 0 0 0 0 0 0 0 0 0 0 0 0 0 0 0 0
0 0 0 0 0 0 0 0 0 0 0 0 0 0 0 0 0 0 0 0 0 0 0 0 0 0 0 0 0 0 0 0 0 0 0 0 0 0 0 0 0 0 0 0 0 0 0 0 0
0 0 0 0 0 0 0 0 0 0 0 0 0 0 0 0 0 0 0 0 0 0 0 0 0 0 0 0 0 0 0 0 0 0 0 0 0 0 0 0 0 0 0 0 0 0 0 0 0
0 0 0 0 0 0 0 0 0 0 0 0 0 0 0 0 0 0 0 0 0 0 0 0 0 0 0 0 0 0 0 0 0 0 0 0 0 0 0 0 0 0 0 0 0 0 0 0 0
0 0 0 0 0 0 0 0 0 0 0 0 0 0 0 0 0 0 0 0 0 0 0 0 0 0 0 0 0 0 0 0 0 0 0 0 0 0 0 0 0 0 0 0 0 0 0 0 0
0 0 0 0 0 0 0 0 0 0 0 0 0 0 0 0 0 0 0 0 0 0 0 0 0 0 0 0 0 0 0 0 0 0 0 0 0 0 0 0 0 0 0 0 0 0 0 0 0
0 0 0 0 0 0 0 0 0 0 0 0 0 0 0 0 0 0 0 0 0 0 0 0 0 0 0 0 0 0 0 0 0 0 0 0 0 0 0 0 0 0 0 0 0 0 0 0 0
0 0 0 0 0 0 0 0 0 0 0 0 0 0 0 0 0 0 0 0 0 0 0 0 0 0 0 0 0 0 0 0 0 0 0 0 0 0 0 0 0 0 0 0 0 0 0 0 0
0 0 0 0 0 0 0 0 0 0 0 0 0 0 0 0 0 0 0 0 0 0 0 0 0 0 0 0 0 0 0 0 0 0 0 0 0 0 0 0 0 0 0 0 0 0 0 0 0
0 0 0 0 0 0 0 0 0 0 0 0 0 0 0 0 0 0 0 0 0 0 0 0 0 0 0 0 0 0 0 0 0 0 0 0 0 0 0 0 0 0 0 0 0 0 0 0 0
0 0 0 0 0 0 0 0 0 0 0 0 0 0 0 0 0 0 0 0 0 0 0 0 0 0 0 0 0 0 0 0 0 0 0 0 0 0 0 0 0 0 0 0 0 0 0 0 0
0 0 0 0 0 0 0 0 0 0 0 0 0 0 0 0 0 0 0 0 0 0 0 0 0 0 0 0 0 0 0 0 0 0 0 0 0 0 0 0 0 0 0 0 0 0 0 0 0
0 0 0 0 0 0 0 0 0 0 0 0 0 0 0 0 0 0 0 0 0 0 0 0 0 0 0 0 0 0 0 0 0 0 0 0 0 0 0 0 0 0 0 0 0 0 0 0 0
0 0 0 0 0 0 0 0 0 0 0 0 0 0 0 0 0 0 0 0 0 0 0 0 0 0 0 0 0 0 0 0 0 0 0 0 0 0 0 0 0 0 0 0 0 0 0 0 0
0 0 0 0 0 0 0 0 0 0 0 0 0 0 0 0 0 0 0 0 0 0 0 0 0 0 0 0 0 0 0 0 0 0 0 0 0 0 0 0 0 0 0 0 0 0 0 0 0
0 0 0 0 0 0 0 0 0 0 0 0 0 0 0 0 0 0 0 0 0 0 0 0 0 0 0 0 0 0 0 0 0 0 0 0 0 0 0 0 0 0 0 0 0 0 0 0 0
0 0 0 0 0 0 0 0 0 0 0 0 0 0 0 0 0 0 0 0 0 0 0 0 0 0 0 0 0 0 0 0 0 0 0 0 0 0 0 0 0 0 0 0 0 0 0 0 0
0 0 0 0 0 0 0 0 0 0 0 0 0 0 0 0 0 0 0 0 0 0 0 0 0 0 0 0 0 0 0 0 0 0 0 0 0 0 0 0 0 0 0 0 0 0 0 0 0
0 0 0 0 0 0 0 0 0 0 0 0 0 0 0 0 0 0 0 0 0 0 0 0 0 0 0 0 0 0 0 0 0 0 0 0 0 0 0 0 0 0 0 0 0 0 0 0 0
0 0 0 0 0 0 0 0 0 0 0 0 0 0 0 0 0 0 1 1 0 0 0 0 0 0 0 0 0 0 0 0 0 0 0 0 0 0 0 0 0 0 0 0 0 0 0 0 0
0 0 0 0 0 0 0 0 0 0 0 0 0 0 0 0 0 0 1 1 1 0 0 0 0 0 0 0 0 0 0 0 0 0 0 0 0 0 0 0 0 0 0 0 0 0 0 0 0
0 0 0 0 0 0 0 0 0 0 0 0 0 0 0 0 0 0 0 1 1 0 0 0 0 0 0 0 0 0 0 0 0 0 0 0 0 0 0 0 0 0 0 0 0 0 0 0 0
0 0 0 0 0 0 0 0 0 0 0 0 0 0 0 0 0 0 0 0 1 1 1 0 0 0 0 0 0 0 0 0 0 0 0 0 0 0 0 0 0 0 0 0 0 0 0 0 0
0 0 0 0 0 0 0 0 0 0 0 0 0 0 0 0 0 0 0 0 0 1 1 1 0 0 0 0 0 0 0 0 0 0 0 0 0 0 0 0 0 0 0 0 0 0 0 0 0
0 0 0 0 0 0 0 0 0 0 0 0 0 0 0 0 0 0 0 0 0 1 1 1 1 0 0 0 0 0 0 0 0 0 0 0 0 0 0 0 0 0 0 0 0 0 0 0 0
0 0 0 0 0 0 0 0 0 0 0 0 0 0 0 0 0 0 0 0 0 0 1 1 1 1 0 0 0 0 0 0 0 0 0 0 0 0 0 0 0 0 0 0 0 0 0 0 0
0 0 0 0 0 0 0 0 0 0 0 0 0 0 0 0 0 0 0 0 0 0 1 1 1 1 1 0 0 0 0 0 0 0 0 0 0 0 0 0 0 0 0 0 0 0 0 0 0
0 0 0 0 0 0 0 0 0 0 0 0 0 0 0 0 0 0 0 0 0 1 1 1 1 1 1 0 0 0 0 0 0 0 0 0 0 0 0 0 0 0 0 0 0 0 0 0 0
0 0 0 0 0 0 0 0 0 0 0 0 0 0 0 0 0 0 0 0 0 1 1 1 1 1 1 1 0 0 0 0 0 0 0 0 0 0 0 0 0 0 0 0 0 0 0 0 0
Wind_Speed
10 7 3 2 4 4 4 4 7 8 6 8 10 10 9 7 5 6 4 8 9 7 4 7 8 9 10 10 11 11 11 12 12 12 13 12 13 13 13 14 14 15 16 16 16 16 17 17 17
5 5 1 3 5 4 3 5 10 10 11 12 12 11 9 7 7 9 6 8 9 7 4 6 9 10 10 10 11 11 11 12 12 12 12 13 12 13 13 13 15 15 15 16 16 16 17 17 16
4 2 2 3 3 4 5 7 11 12 12 9 7 7 6 6 7 6 7 11 9 6 4 6 10 10 10 10 11 11 11 12 12 13 13 13 12 12 13 14 15 15 15 15 16 17 17 16 15
2 2 3 4 4 4 7 8 12 13 10 9 9 7 5 5 5 9 12 12 10 6 4 7 11 10 11 11 11 11 11 11 12 12 12 12 12 13 13 14 15 16 16 15 16 16 16 14 13
2 3 4 2 3 5 7 10 11 11 6 9 10 9 5 5 11 14 12 11 9 6 4 6 10 11 11 11 11 11 11 11 11 12 12 12 12 13 14 15 15 16 15 15 15 15 14 13 12
3 3 3 2 4 6 6 10 13 14 13 12 11 9 4 7 11 12 11 10 9 8 5 5 9 9 10 11 11 11 11 11 11 11 12 11 12 14 15 15 15 15 15 14 13 13 12 11 10
4 3 3 4 5 6 7 8 11 12 12 8 9 7 5 6 9 11 11 9 8 7 5 3 4 5 9 10 10 10 10 11 11 11 11 11 12 13 14 13 14 14 14 13 11 11 10 9 8
5 4 2 3 6 5 6 6 9 12 9 11 8 8 7 8 10 10 10 8 8 6 5 4 3 3 3 5 9 10 10 10 10 10 10 10 11 12 12 11 12 13 12 12 10 9 8 7 7
5 4 3 5 6 5 7 10 7 8 11 6 5 8 11 13 12 10 8 6 6 6 4 4 3 3 3 4 6 7 9 9 8 8 9 8 4 5 6 9 11 11 11 10 9 8 7 6 5
5 5 7 7 8 7 10 12 8 7 10 9 10 11 13 12 11 10 9 7 6 6 5 4 4 4 3 4 3 2 3 3 3 3 4 3 3 3 5 8 10 10 9 8 7 6 4 3 2
5 6 5 6 8 9 9 9 6 10 9 13 15 14 12 11 10 9 8 8 7 7 6 5 5 5 4 3 3 2 1 2 2 3 3 3 3 3 3 2 3 4 5 3 3 2 1 1 1
4 4 6 6 7 7 8 8 7 8 10 13 15 14 11 11 9 9 8 7 6 6 5 5 5 5 4 4 3 3 2 2 2 2 4 3 3 3 2 2 2 2 1 2 2 1 1 1 1
5 4 5 6 6 6 9 10 9 9 13 14 15 13 11 10 8 7 7 8 7 6 5 5 5 5 5 5 4 4 3 3 3 2 3 4 4 4 3 2 2 2 1 2 2 1 1 1 1
3 5 5 6 6 7 11 8 8 11 15 14 13 11 11 11 9 7 7 7 7 6 6 6 6 6 5 4 3 3 3 3 3 3 3 4 4 3 3 3 2 2 2 2 2 2 2 1 1
4 6 5 3 4 5 10 6 9 14 15 14 13 12 11 10 10 10 9 8 8 7 6 6 6 5 5 5 4 3 3 4 3 3 4 4 4 4 4 3 3 2 2 2 2 2 2 1 1
5 5 2 2 3 4 7 6 9 13 14 13 12 12 11 9 10 10 10 8 7 7 7 6 7 6 5 5 4 3 3 4 3 3 3 4 4 4 4 3 2 2 2 2 2 2 2 1 1
3 2 2 2 3 4 4 5 9 11 13 12 11 11 11 9 8 9 10 9 8 8 7 6 6 6 5 4 4 4 3 3 3 3 3 3 4 4 3 3 2 2 2 2 2 2 2 2 1
3 3 3 3 3 4 4 4 9 11 12 12 11 10 11 11 10 10 10 9 8 7 7 6 6 6 5 4 3 3 3 2 2 3 3 4 4 4 4 2 2 3 3 2 2 2 2 2 2
5 4 3 3 3 4 4 5 9 10 10 11 10 10 11 11 9 10 10 10 8 7 6 6 6 5 4 3 3 3 2 2 2 2 3 4 4 4 4 3 2 3 3 3 3 3 3 1 2
4 3 2 0 2 3 3 4 7 9 11 13 14 12 12 10 9 10 9 9 9 8 7 7 6 5 5 4 3 3 3 2 2 2 2 3 4 4 4 3 3 3 3 3 3 3 2 1 2
3 6 5 4 2 2 2 1 4 5 5 6 9 11 12 14 14 12 11 9 9 8 8 8 6 6 5 4 3 3 2 2 1 1 1 2 4 4 4 4 3 3 3 3 3 3 4 2 1
4 8 8 6 5 2 2 2 5 5 5 7 8 9 12 12 12 12 12 11 11 10 9 7 7 6 5 5 5 5 4 3 3 3 2 2 3 4 4 4 4 4 3 3 3 3 3 3 2
5 6 6 6 5 1 1 3 6 1 5 8 9 11 12 13 14 14 13 13 11 10 9 8 7 6 5 5 6 5 4 3 2 2 2 2 2 3 4 4 4 4 3 3 3 3 3 3 3
4 4 4 5 4 1 4 3 5 5 9 9 9 11 12 13 14 13 12 11 9 9 8 7 7 6 6 6 5 6 6 5 4 3 3 2 2 2 3 3 3 4 3 3 3 3 3 3 3
3 6 3 3 3 3 3 2 7 8 9 9 10 10 11 13 13 13 12 12 11 10 10 9 8 7 6 6 6 6 6 6 6 5 4 4 2 2 3 3 3 3 3 4 3 3 3 3 3
4 9 8 6 5 4 2 4 7 5 3 4 6 7 9 11 12 13 13 13 13 13 12 10 10 8 7 7 6 5 6 4 4 5 4 4 4 3 4 4 3 4 4 4 3 3 3 3 3
4 4 8 8 3 1 3 4 6 2 2 4 5 6 8 10 12 12 12 12 12 12 11 11 11 9 8 8 6 5 5 5 5 4 4 3 3 3 4 4 4 4 3 3 3 3 3 3 3
6 6 5 6 5 3 3 3 4 4 3 3 5 7 8 9 10 11 11 12 11 11 10 10 10 10 8 8 7 6 5 6 5 4 4 4 4 3 4 4 4 3 3 3 3 2 3 3 2
1 2 4 4 6 7 3 6 7 8 7 7 7 7 9 10 11 11 10 11 10 9 10 9 9 8 7 8 7 6 6 5 4 4 5 4 4 4 4 4 4 4 4 3 3 3 3 3 3
4 6 7 5 3 5 5 7 4 6 6 6 6 5 6 9 10 10 10 10 9 9 9 9 9 8 8 8 7 6 5 5 5 5 4 4 4 4 4 4 4 4 4 3 4 4 4 4 4
Wind_Direction
172 165 162 134 54 52 82 92 98 86 70 69 77 82 83 68 95 126 160 137 133 134 132 124 115 110 107 104 103 101 100 98 99 100 102 103 112 116 117 118 120 123 124 123 121 122 123 122 123
166 165 144 61 77 77 71 95 97 101 115 106 85 85 79 73 87 111 130 138 131 131 132 123 118 115 111 109 107 107 104 102 100 100 104 107 110 116 119 119 119 121 122 122 122 124 124 125 126
175 174 90 67 98 133 118 106 108 107 108 102 93 74 75 100 109 123 143 136 126 124 125 130 121 117 113 112 112 112 110 107 103 101 103 105 109 113 115 116 118 119 118 121 124 126 127 129 129
141 63 45 71 112 142 128 124 113 108 89 83 95 79 73 106 119 131 136 134 127 125 122 128 124 120 117 116 114 114 113 110 108 106 105 104 110 116 116 116 119 119 118 119 124 127 129 130 133
94 79 49 60 105 106 110 116 111 107 93 94 95 100 89 88 116 128 135 135 130 129 130 131 125 121 120 121 120 118 116 115 113 110 107 106 110 116 117 116 115 117 117 118 124 129 131 133 133
80 76 84 99 107 105 114 118 107 106 113 110 106 107 102 124 123 134 135 135 137 135 132 129 130 127 126 125 124 126 122 120 117 114 111 109 110 116 119 117 118 119 120 120 122 131 133 135 139
119 111 149 142 116 112 125 121 118 126 129 127 126 106 120 135 134 133 132 130 134 134 132 133 137 136 134 132 129 128 128 127 124 121 118 117 116 117 119 120 122 124 126 126 126 129 131 134 137
153 117 119 130 124 131 138 119 130 131 122 132 129 127 151 157 140 128 126 127 131 136 145 149 139 133 145 141 136 134 134 133 131 129 126 125 124 126 127 127 130 129 132 133 134 135 136 137 138
129 97 151 168 147 149 132 112 110 109 120 133 114 130 146 145 133 123 120 122 135 142 152 152 140 133 138 144 142 141 137 137 135 132 132 129 120 124 131 137 137 136 137 138 139 141 141 142 139
126 140 185 178 158 150 135 130 129 112 112 109 110 119 134 135 133 134 138 141 145 155 161 155 154 155 156 149 129 129 133 133 127 124 130 123 128 140 141 148 146 146 143 142 143 145 142 130 112
143 157 159 146 148 142 133 134 120 122 132 143 142 144 144 138 141 144 148 150 154 159 157 159 161 162 161 145 135 134 138 137 138 138 140 133 127 131 130 134 145 144 146 135 134 134 113 117 136
129 138 136 145 144 135 136 130 121 134 150 148 144 146 144 144 147 152 154 155 149 146 150 150 151 151 153 145 144 156 156 153 152 154 144 136 133 133 134 137 141 145 137 134 131 126 148 157 166
114 115 113 120 123 125 122 128 123 133 138 138 138 141 146 151 153 158 152 146 140 142 148 150 141 140 144 144 158 153 163 161 158 148 142 141 141 145 146 147 148 153 147 150 148 149 157 157 159
158 117 114 125 122 126 123 126 116 145 144 144 146 149 152 153 152 146 141 139 141 145 148 148 145 144 142 144 146 148 157 153 149 149 145 142 142 145 147 148 154 160 165 164 162 162 151 142 122
87 86 66 94 126 133 112 109 143 154 149 150 155 156 154 154 153 153 156 152 151 151 145 147 149 143 141 143 143 139 147 145 148 152 146 141 140 144 143 143 154 167 159 154 148 146 128 132 116
64 74 86 267 131 150 116 161 169 158 153 156 160 160 158 160 162 158 157 152 150 145 144 151 149 141 137 137 134 133 136 137 142 145 143 144 144 144 139 143 159 163 148 147 144 136 121 115 113
57 129 200 248 192 162 129 171 175 167 159 162 165 165 163 163 162 158 158 154 153 150 147 147 142 144 142 138 132 130 132 138 144 145 146 152 152 147 139 147 160 151 137 141 152 135 134 133 129
218 192 201 208 204 146 139 170 168 172 168 168 169 167 165 169 171 164 159 155 153 151 146 144 144 149 142 128 114 109 113 130 139 148 159 159 160 153 144 149 157 141 129 125 129 134 137 143 149
190 182 200 223 168 130 151 163 175 178 173 171 173 172 170 175 170 162 160 157 153 149 143 144 147 153 143 134 135 135 145 156 155 163 161 161 159 154 147 148 147 139 140 151 146 138 133 125 116
166 156 190 10 88 110 148 199 198 182 184 180 177 177 174 169 164 165 164 161 161 160 154 151 156 158 158 157 154 153 151 159 167 169 162 168 161 157 158 154 157 152 144 144 145 141 133 152 140
187 175 178 167 72 29 110 292 226 211 195 183 179 177 175 174 173 172 169 168 164 164 164 163 164 160 161 153 133 118 98 85 97 149 178 186 168 165 161 161 158 158 155 165 171 159 155 170 193
224 195 179 160 126 238 183 210 259 206 210 193 185 180 180 178 173 173 172 171 174 175 170 165 166 165 163 151 145 148 152 166 188 180 182 186 175 173 170 169 165 165 161 166 181 165 160 156 178
218 192 167 154 138 111 319 142 275 220 214 210 192 184 184 182 177 176 176 176 177 174 170 169 168 170 168 161 160 156 158 172 166 156 164 185 189 183 177 173 173 172 167 172 178 167 165 165 175
165 96 61 55 81 119 236 174 250 219 211 206 195 188 185 184 180 177 174 170 170 170 170 170 168 174 172 167 166 166 164 165 157 165 173 187 190 194 191 176 174 175 174 181 184 183 177 184 186
110 100 70 9 13 244 238 184 239 237 217 202 191 188 183 182 179 175 172 172 172 172 176 175 173 177 179 174 175 177 172 169 175 178 180 179 181 192 201 186 177 180 186 188 186 185 193 191 190
194 150 161 180 200 251 290 221 247 246 204 181 173 175 176 177 179 178 178 177 176 177 178 177 177 180 182 181 184 181 177 175 182 182 178 185 190 197 190 183 187 192 193 194 187 192 206 200 202
188 186 169 141 152 149 264 275 313 342 107 132 141 158 169 176 177 177 176 175 175 177 179 178 178 180 184 186 184 184 184 182 186 184 179 188 191 193 186 185 187 192 193 191 184 199 210 200 203
175 161 102 117 146 197 255 236 227 235 204 163 168 175 171 171 173 175 177 177 176 177 178 176 178 184 186 187 190 189 192 193 190 179 183 185 188 185 174 184 187 194 196 193 189 202 212 200 209
202 118 114 126 151 153 197 257 219 201 199 176 181 183 173 168 171 175 179 179 175 172 175 174 179 182 184 186 190 191 194 194 186 187 193 192 191 185 185 190 191 198 206 206 199 209 205 203 216
187 186 149 150 205 158 158 256 243 188 198 175 173 178 170 164 167 169 172 171 171 175 177 179 182 185 190 189 187 189 188 187 187 196 201 195 191 193 193 188 192 201 206 207 205 215 213 206 213